Location: Newark
(44.0167°N, 1.3500°E)
Time: 07:04:48
(UTC+00:00)

Envisat - Visible Passes

Search period start: 18 October 2019 00:00
Search period end: 28 October 2019 00:00
Orbit: 764 x 766 km, 98.1° (Epoch: 18 October)

Date Brightness Start Highest point End Pass type
(mag) Time Alt. Az. Time Alt. Az. Time Alt. Az.
18 Oct 4.8 18:45:20 10° SSW 18:49:52 33° W 18:54:26 10° NNW visible
19 Oct 3.3 18:07:54 10° S 18:12:57 71° WSW 18:18:03 10° NNW visible
20 Oct 3.1 17:31:18 10° SSE 17:36:14 54° ENE 17:41:12 10° N visible
20 Oct 5.7 19:12:00 10° SW 19:15:36 19° W 19:19:12 10° NW visible
21 Oct 6.1 05:39:52 10° NE 05:43:07 17° E 05:46:21 10° SE visible
21 Oct 4.4 18:33:46 10° SSW 18:38:32 41° W 18:43:20 10° NNW visible
22 Oct 3.0 17:56:36 10° SSE 18:01:41 88° WSW 18:06:48 10° NNW visible
22 Oct 6.3 19:40:16 10° W 19:41:25 11° W 19:42:35 10° WNW visible
23 Oct 3.3 17:20:15 10° SE 17:25:02 43° ENE 17:29:50 10° N visible
23 Oct 5.3 19:00:09 10° SSW 19:04:13 24° W 19:08:19 10° NW visible
24 Oct 6.4 05:29:20 10° ENE 05:31:43 13° E 05:34:06 10° ESE visible
24 Oct 3.9 18:22:18 10° S 18:27:14 51° W 18:32:12 10° NNW visible
25 Oct 2.9 17:45:23 10° SSE 17:50:26 74° ENE 17:55:31 10° N visible
25 Oct 6.0 19:27:25 10° WSW 19:30:01 14° W 19:32:36 10° WNW visible
26 Oct 4.9 18:48:27 10° SSW 18:52:52 30° W 18:57:19 10° NW visible
27 Oct 6.7 05:19:49 10° E 05:20:18 10° E 05:20:47 10° E visible
27 Oct 3.4 18:10:54 10° S 18:15:56 65° WSW 18:21:01 10° NNW visible
